[[[{"header":{"parameterUnit":"kt","parameterCategory":2,"dx":1,"dy":1,"la1":30.253999710083008,"la2":30.299108505249023,"lo1":-89.0895004272461,"lo2":-89.04439544677734,"nx":28,"ny":28,"refTime":"2022-10-20T21:00:00:Z","depth":0,"parameterNumber":1,"parameterNumberName":"U-component_of_WINDS"},"data":[-3.0886,-3.099,-3.1037,-3.1179,-3.1246,-3.1352,-3.1405,-3.1479,-3.1551,-3.1684,-3.177,-3.1831,-3.1924,-3.2039,-3.2135,-3.2161,-3.2199,-3.22,-3.223,-3.218,-3.2177,-3.2173,-3.2152,-3.2207,-3.2207,-3.2276,-3.2276,-3.2277,-3.0843,-3.091,-3.0998,-3.1117,-3.1194,-3.1221,-3.1319,-3.1382,-3.1477,-3.1566,-3.1653,-3.1776,-3.1879,-3.1974,-3.2083,-3.2135,-3.2155,-3.216,-3.2159,-3.2173,-3.2121,-3.2097,-3.2142,-3.2142,-3.2142,-3.2142,-3.2142,-3.2142,-3.0778,-3.0838,-3.0938,-3.1036,-3.1109,-3.1189,-3.1256,-3.1328,-3.1417,-3.1535,-3.1577,-3.1686,-3.1787,-3.1943,-3.2009,-3.2096,-3.21,-3.2122,-3.2128,-3.2133,-3.2131,-3.2027,-3.2117,-3.2117,-3.2117,-3.2117,-3.2117,0,-3.0746,-3.0782,-3.0871,-3.0974,-3.1048,-3.1133,-3.122,-3.1263,-3.136,-3.143,-3.1535,-3.1605,-3.1743,-3.185,-3.1963,-3.2028,-3.2068,-3.2077,-3.2093,-3.2075,-3.2043,-3.2062,-3.1976,-3.2075,-3.2075,-3.2074,-3.2074,-3.2074,-3.0686,-3.075,-3.0879,-3.0935,-3.0995,-3.1084,-3.1148,-3.1229,-3.1293,-3.1413,-3.1464,-3.1571,-3.1662,-3.1825,-3.1913,-3.2017,-3.2038,-3.207,-3.2055,-3.2033,-3.2041,-3.2037,-3.2045,-3.2073,-3.2073,-3.2073,-3.2073,0,-3.0647,-3.0727,-3.0844,-3.0966,-3.0999,-3.1063,-3.117,-3.1235,-3.1299,-3.1398,-3.1426,-3.1529,-3.1633,-3.1717,-3.1853,-3.1894,-3.2004,-3.2021,-3.1969,-3.1978,-3.2016,-3.2012,-3.2125,-3.2144,-3.2086,-3.2087,-3.2087,0,-3.0629,-3.0711,-3.0826,-3.0889,-3.0984,-3.1063,-3.1155,-3.122,-3.1308,-3.1387,-3.1444,-3.1517,-3.1613,-3.1698,-3.1759,-3.1864,-3.1889,-3.1928,-3.1943,-3.1924,-3.1919,-3.1962,-3.196,-3.1974,-3.1973,-3.1973,-3.1972,0,-3.0562,-3.072,-3.0823,-3.0873,-3.1013,-3.106,-3.1121,-3.1221,-3.1284,-3.1378,-3.142,-3.1525,-3.1583,-3.1664,-3.1741,-3.1727,-3.1871,-3.1868,-3.1911,-3.1909,-3.194,-3.1937,-3.2014,-3.1972,-3.1971,-3.1971,-3.1971,0,-3.056,-3.0652,-3.0789,-3.0908,-3.0947,-3.1015,-3.1123,-3.1201,-3.1303,-3.1345,-3.1421,-3.147,-3.1568,-3.1559,-3.1696,-3.1656,-3.171,-3.1756,-3.176,-3.1776,-3.1764,-3.1798,-3.1861,-3.1871,-3.1787,-3.1786,-3.1785,0,-3.0462,-3.0622,-3.0691,-3.0821,-3.0907,-3.0965,-3.1044,-3.1132,-3.1195,-3.1278,-3.1349,-3.1444,-3.1455,-3.1497,-3.1553,-3.163,-3.1682,-3.1626,-3.1748,-3.1752,-3.172,-3.1779,-3.1768,-3.1837,-3.1766,-3.1768,-3.177,0,-3.0397,-3.0566,-3.0584,-3.0645,-3.0773,-3.0846,-3.0935,-3.1046,-3.1098,-3.1191,-3.1269,-3.1404,-3.1419,-3.1487,-3.1539,-3.1593,-3.1649,-3.1602,-3.1606,-3.1609,-3.1764,-3.1753,-3.1764,-3.1672,-3.1675,-3.1677,-3.1755,0,-3.0378,-3.0469,-3.0521,-3.0652,-3.0721,-3.0807,-3.0895,-3.0956,-3.0999,-3.1064,-3.118,-3.1276,-3.1392,-3.1426,-3.1469,-3.1566,-3.1564,-3.1578,-3.1577,-3.1614,-3.1643,-3.1654,-3.1528,-3.1528,-3.1529,-3.1529,0,0,-3.0266,-3.0398,-3.0472,-3.0561,-3.0624,-3.0685,-3.0769,-3.0838,-3.0976,-3.1019,-3.1018,-3.1223,-3.1302,-3.1435,-3.1453,-3.1499,-3.1526,-3.151,-3.1596,-3.1603,-3.1609,-3.1638,-3.1648,-3.153,-3.153,-3.153,-3.153,0,-3.0278,-3.0353,-3.0434,-3.0509,-3.0621,-3.0686,-3.0705,-3.0828,-3.0874,-3.0988,-3.1039,-3.112,-3.1281,-3.1359,-3.1419,-3.1495,-3.153,-3.1523,-3.1534,-3.1597,-3.1603,-3.1609,-3.1638,-3.1647,-3.1531,-3.1531,-3.1531,0,-3.0231,-3.032,-3.0369,-3.0514,-3.0589,-3.0676,-3.0696,-3.0787,-3.0854,-3.0918,-3.1031,-3.1097,-3.1208,-3.1321,-3.1375,-3.1377,-3.1529,-3.1497,-3.1497,-3.1505,-3.157,-3.1578,-3.1584,-3.1496,-3.1495,-3.1495,0,0,-3.023,-3.0314,-3.0437,-3.0523,-3.0567,-3.0664,-3.072,-3.0768,-3.0865,-3.0904,-3.099,-3.1083,-3.1179,-3.124,-3.1334,-3.1445,-3.1476,-3.1489,-3.149,-3.1491,-3.15,-3.1565,-3.1573,-3.1493,-3.1493,-3.1493,0,0,-3.023,-3.0374,-3.04,-3.0511,-3.06,-3.0728,-3.0779,-3.0814,-3.0907,-3.0908,-3.0996,-3.1024,-3.1132,-3.1195,-3.1159,-3.1336,-3.1333,-3.1344,-3.1291,-3.1294,-3.1296,-3.128,-3.1195,0,0,0,0,0,-3.0288,-3.0356,-3.0377,-3.0409,-3.0595,-3.0716,-3.074,-3.0813,-3.0809,-3.0848,-3.0925,-3.0959,-3.1194,-3.1164,-3.1195,-3.1236,-3.1469,-3.1473,-3.1477,-3.1436,-3.1438,-3.144,0,0,0,0,0,0,-3.0301,-3.034,-3.0376,-3.0505,-3.0548,-3.0714,-3.0724,-3.0746,-3.0807,-3.0812,-3.0942,-3.0963,-3.1029,-3.1153,-3.118,-3.1217,-3.1186,-3.147,-3.1474,-3.1477,-3.1436,-3.1438,-3.144,0,0,0,0,0,-3.0312,-3.0343,-3.0621,-3.0505,-3.0542,-3.0655,-3.0722,-3.074,-3.0789,-3.091,-3.0931,-3.0839,-3.1028,-3.1056,-3.117,-3.1203,-3.1168,-3.1178,-3.1473,-3.1476,-3.1478,-3.1437,0,0,0,0,0,0,-3.032,-3.0362,-3.063,-3.0644,-3.0484,-3.0647,-3.0675,-3.0735,-3.0885,-3.0906,-3.081,-3.0812,-3.1028,-3.105,-3.1071,-3.1193,-3.1153,-3.1163,-3.1169,-3.1475,-3.1477,-3.1479,0,0,0,0,0,0,-3.0346,-3.0373,-3.0637,-3.0607,-3.0619,-3.064,-3.0664,-3.0772,-3.0886,-3.0777,-3.0783,-3.0809,-3.0997,-3.1046,-3.1062,-3.1228,-3.1142,-3.1151,-3.1158,-3.1162,-3.1477,-3.1478,0,0,0,0,0,0,-3.0359,-3.0383,-3.0604,-3.0613,-3.0623,-3.0786,-3.0737,-3.0923,-3.0858,-3.077,-3.0854,-3.0853,-3.0992,-3.101,-3.1056,-3.1214,-3.1224,-3.1142,-3.1149,-3.1153,-3.1156,0,0,0,0,0,0,0,-3.0369,-3.0192,-3.0546,-3.0617,-3.0626,-3.0774,-3.0778,-3.0781,-3.0858,-3.0856,-3.0855,-3.0853,-3.1087,-3.1097,-3.1108,-3.1203,0,0,-3.1141,-3.1146,0,0,0,0,0,0,0,0,-3.0184,-3.019,-3.0547,-3.055,-3.0553,-3.0774,-3.0777,-3.0781,-3.0857,-3.0856,-3.0855,-3.0854,-3.109,-3.1098,-3.1107,0,0,0,0,0,0,0,0,0,0,0,0,0,0,0,-3.0547,-3.0549,0,-3.0775,-3.0777,-3.078,-3.0857,-3.0856,-3.0855,-3.0854,-3.1092,-3.1099,-3.1106,0,0,0,0,0,0,0,0,0,0,0,0,0,0,0,0,0,0,0,0,0,0,0,0,0,0,0,0,0,0,0,0,0,0,0,0,0,0,0,0,0,0,0,0,0,0,0,0,0,0,0,0,0,0,0,0,0,0,0,0,0,0,0,0,0,0,0,0,0]}],[{"header":{"parameterUnit":"kt","parameterCategory":2,"dx":1,"dy":1,"la1":30.253999710083008,"la2":30.299108505249023,"lo1":-89.0895004272461,"lo2":-89.04439544677734,"nx":28,"ny":28,"refTime":"2022-10-20T21:00:00:Z","depth":0,"parameterNumber":2,"parameterNumberName":"V-component_of_WINDS"},"data":[2.3872,2.389,2.3849,2.3851,2.3815,2.3808,2.3792,2.3768,2.3738,2.3724,2.3709,2.367,2.3622,2.3593,2.3574,2.3556,2.3549,2.3585,2.3557,2.3436,2.3416,2.3398,2.3389,2.3585,2.3585,2.3687,2.3688,2.3689,2.3784,2.3748,2.3738,2.37,2.369,2.3631,2.3595,2.3591,2.3586,2.355,2.3533,2.3518,2.35,2.344,2.3415,2.3421,2.339,2.3417,2.3414,2.3407,2.3277,2.3268,2.3442,2.3442,2.3442,2.3442,2.3442,2.3442,2.3611,2.3625,2.3577,2.3565,2.3535,2.351,2.3515,2.3466,2.3455,2.3426,2.3379,2.3373,2.3328,2.3279,2.3252,2.3245,2.3208,2.3223,2.3226,2.323,2.3239,2.3092,2.324,2.3239,2.3238,2.3238,2.3237,0,2.3471,2.3436,2.3423,2.3399,2.3388,2.3365,2.3337,2.3339,2.3249,2.3244,2.3232,2.3218,2.3191,2.3174,2.3143,2.3111,2.3046,2.3036,2.3046,2.3066,2.3088,2.3072,2.2858,2.3032,2.303,2.3028,2.3027,2.3026,2.329,2.3312,2.3244,2.324,2.3214,2.3211,2.32,2.312,2.3112,2.3065,2.308,2.3063,2.3045,2.3033,2.2974,2.2953,2.2921,2.2991,2.2917,2.2936,2.2917,2.2915,2.2915,2.3006,2.3009,2.3011,2.3012,0,2.3192,2.3125,2.3145,2.3074,2.3057,2.3084,2.3022,2.3033,2.2984,2.2991,2.2988,2.291,2.29,2.2829,2.2805,2.2767,2.2806,2.2777,2.282,2.2809,2.2861,2.2856,2.3052,2.3071,2.2872,2.2874,2.2876,0,2.3009,2.3042,2.2938,2.2954,2.2986,2.2903,2.2938,2.2898,2.2859,2.2863,2.278,2.2786,2.2695,2.269,2.2636,2.2656,2.2652,2.2623,2.2608,2.2629,2.2632,2.262,2.2609,2.2577,2.2576,2.2575,2.2575,0,2.2859,2.2843,2.2868,2.2853,2.2781,2.2795,2.2765,2.272,2.2711,2.2687,2.2679,2.2658,2.2646,2.2631,2.256,2.2513,2.2584,2.2504,2.2554,2.2556,2.2571,2.2571,2.2765,2.2573,2.2573,2.2573,2.2573,0,2.27,2.2678,2.2727,2.2663,2.2662,2.268,2.2652,2.2651,2.2609,2.2576,2.2557,2.2491,2.2506,2.243,2.2447,2.2404,2.2396,2.2371,2.2373,2.2367,2.2284,2.2398,2.2594,2.2609,2.2365,2.2363,2.2362,0,2.2544,2.2575,2.2504,2.2552,2.2555,2.2459,2.2477,2.2443,2.24,2.2396,2.2348,2.2345,2.2274,2.2263,2.2281,2.2231,2.2287,2.2222,2.2213,2.2214,2.2223,2.2403,2.2448,2.2559,2.2339,2.2341,2.2343,0,2.2414,2.2327,2.2341,2.2318,2.2261,2.2265,2.2287,2.2265,2.2266,2.2239,2.2252,2.2249,2.2193,2.2177,2.2122,2.2145,2.2247,2.2083,2.208,2.2111,2.2323,2.2365,2.2384,2.2205,2.2207,2.2209,2.2325,0,2.2182,2.2189,2.2225,2.2182,2.2174,2.2202,2.2125,2.2127,2.2073,2.2027,2.2048,2.2003,2.1982,2.1986,2.1936,2.2012,2.1987,2.1929,2.1848,2.1968,2.2004,2.2019,2.1801,2.1798,2.1795,2.1793,0,0,2.2047,2.2056,2.1977,2.1995,2.1983,2.1882,2.1917,2.1894,2.185,2.1843,2.1798,2.1786,2.1752,2.1785,2.1817,2.181,2.1815,2.1777,2.1913,2.1926,2.1939,2.1978,2.1995,2.1789,2.1788,2.1788,2.1787,0,2.1945,2.1914,2.195,2.1922,2.1878,2.1826,2.1836,2.1774,2.1746,2.1767,2.1683,2.1687,2.1682,2.1654,2.164,2.1772,2.1707,2.1772,2.1866,2.1892,2.1909,2.1923,2.1966,2.1983,2.1781,2.1781,2.1782,0,2.1801,2.1755,2.1765,2.1735,2.1705,2.1713,2.1609,2.1623,2.1627,2.1516,2.1538,2.1504,2.1462,2.1506,2.1523,2.1482,2.1612,2.1559,2.1572,2.1571,2.1592,2.1612,2.1631,2.1391,2.139,2.1389,0,0,2.1723,2.173,2.1656,2.1707,2.1694,2.1619,2.1616,2.1562,2.1527,2.1514,2.1467,2.1435,2.143,2.1429,2.1421,2.1481,2.1464,2.1514,2.1533,2.1548,2.1556,2.1581,2.1601,2.1385,2.1385,2.1385,0,0,2.1685,2.1601,2.1553,2.1603,2.1573,2.1502,2.1536,2.1476,2.1461,2.1449,2.1359,2.1347,2.1387,2.1356,2.1312,2.139,2.1312,2.1321,2.1409,2.1431,2.1449,2.1454,2.1198,0,0,0,0,0,2.1541,2.1611,2.1568,2.1565,2.1527,2.1526,2.1521,2.1448,2.1392,2.1421,2.1372,2.1303,2.1313,2.1271,2.127,2.132,2.1334,2.1343,2.1351,2.1477,2.1501,2.1522,0,0,0,0,0,0,2.1539,2.1536,2.1566,2.15,2.1491,2.1523,2.1413,2.1395,2.1387,2.1374,2.1315,2.1302,2.124,2.1267,2.1267,2.1316,2.1198,2.1337,2.1345,2.1352,2.1485,2.1505,2.1522,0,0,0,0,0,2.1538,2.1535,2.1492,2.1499,2.149,2.141,2.141,2.1394,2.1387,2.1311,2.1296,2.1332,2.1243,2.1238,2.1266,2.1318,2.1198,2.1198,2.1342,2.1348,2.1354,2.1495,0,0,0,0,0,0,2.1536,2.152,2.1488,2.1483,2.1467,2.1406,2.1394,2.1394,2.1323,2.1308,2.1324,2.1314,2.1246,2.1241,2.1238,2.1322,2.1197,2.1198,2.1198,2.1347,2.1352,2.1356,0,0,0,0,0,0,2.1521,2.1516,2.1486,2.145,2.1439,2.1404,2.1393,2.1408,2.1324,2.1339,2.1329,2.132,2.1252,2.1245,2.1241,2.1267,2.1197,2.1197,2.1198,2.1198,2.1351,2.1355,0,0,0,0,0,0,2.1518,2.1514,2.145,2.1443,2.1434,2.1369,2.1415,2.138,2.1293,2.1344,2.1283,2.1278,2.1257,2.1252,2.1245,2.1272,2.1269,2.1197,2.1197,2.1197,2.1197,0,0,0,0,0,0,0,2.1515,2.1559,2.152,2.1437,2.1429,2.1435,2.1433,2.1432,2.1292,2.1288,2.1284,2.128,2.1196,2.1196,2.1197,2.1276,0,0,2.1197,2.1197,0,0,0,0,0,0,0,0,2.1559,2.1559,2.152,2.1519,2.1517,2.1434,2.1433,2.1432,2.1291,2.1288,2.1285,2.1282,2.1196,2.1196,2.1197,0,0,0,0,0,0,0,0,0,0,0,0,0,0,0,2.152,2.1519,0,2.1434,2.1433,2.1432,2.1291,2.1288,2.1285,2.1283,2.1196,2.1196,2.1197,0,0,0,0,0,0,0,0,0,0,0,0,0,0,0,0,0,0,0,0,0,0,0,0,0,0,0,0,0,0,0,0,0,0,0,0,0,0,0,0,0,0,0,0,0,0,0,0,0,0,0,0,0,0,0,0,0,0,0,0,0,0,0,0,0,0,0,0,0]}]]]